Location: Roland
(31.1349°N, 85.4372°W)
Time: 18:29:35
(UTC+00:00)

Vanguard 1 Rocket - Visible Passes

Search period start: 07 October 2022 00:00
Search period end: 17 October 2022 00:00
Orbit: 650 x 4225 km, 34.3° (Epoch: 06 October)

Date Brightness Start Highest point End Pass type
(mag) Time Alt. Az. Time Alt. Az. Time Alt. Az.
07 Oct 10.0 00:17:46 10° WSW 00:43:00 86° SSE 00:54:01 24° ENE visible
07 Oct 9.4 02:53:57 10° W 03:11:17 69° NW 03:11:17 69° NW visible
07 Oct 11.1 05:28:26 10° WNW 05:28:33 10° WNW 05:28:33 10° WNW visible
07 Oct 10.5 23:02:09 10° SW 23:28:22 73° SSE 23:45:16 10° ENE visible
08 Oct 9.3 01:36:51 10° W 01:59:45 81° N 02:03:52 56° ENE visible
08 Oct 10.3 04:12:57 10° WNW 04:21:07 32° WNW 04:21:07 32° WNW visible
09 Oct 10.0 00:19:59 10° WSW 00:45:32 88° NNW 00:56:25 26° ENE visible
09 Oct 9.4 02:56:28 10° W 03:13:41 67° WNW 03:13:41 67° WNW visible
09 Oct 10.5 23:04:03 10° WSW 23:30:39 81° SSE 23:48:02 10° ENE visible
10 Oct 9.3 01:39:22 10° W 02:02:30 79° N 02:06:13 60° ENE visible
10 Oct 10.4 04:15:22 10° WNW 04:23:28 31° WNW 04:23:28 31° WNW visible
11 Oct 10.0 00:22:21 10° WSW 00:48:06 84° NNW 00:58:45 28° ENE visible
11 Oct 9.5 02:58:56 10° WNW 03:16:01 66° WNW 03:16:01 66° WNW visible
11 Oct 10.5 23:06:11 10° WSW 23:33:00 87° SSE 23:50:47 10° ENE visible
12 Oct 9.3 01:41:53 10° W 02:05:16 80° N 02:08:32 63° ENE visible
12 Oct 10.5 04:17:45 10° WNW 04:25:47 30° WNW 04:25:47 30° WNW visible
13 Oct 10.0 00:24:50 10° W 00:50:45 81° N 01:01:03 30° E visible
13 Oct 9.6 03:01:21 10° WNW 03:18:19 64° WNW 03:18:19 64° WNW visible
13 Oct 10.5 23:08:31 10° WSW 23:35:26 87° NNW 23:53:34 10° ENE visible
14 Oct 9.3 01:44:23 10° W 02:08:00 83° N 02:10:50 68° E visible
14 Oct 10.6 04:20:09 10° WNW 04:28:06 29° W 04:28:06 29° W visible
15 Oct 9.9 00:27:22 10° W 00:53:25 81° N 01:03:22 33° E visible
15 Oct 9.7 03:03:42 10° WNW 03:20:37 62° W 03:20:37 62° W visible
15 Oct 10.5 23:10:59 10° W 23:37:56 84° N 23:55:54 12° E visible
16 Oct 9.4 01:46:50 10° WNW 02:10:42 87° NNE 02:13:10 72° E visible
16 Oct 10.7 04:22:37 10° WNW 04:30:25 27° W 04:30:25 27° W visible
